星链-31385 (STARLINK-31385 )

导读 | 豆包AI

STARLINK-31385是美国SpaceX公司星链(Starlink)星座中的一颗卫星,于2024年2月15日发射升空。星链星座旨在通过低轨卫星群为全球提供高速低延迟宽带互联网服务,尤其覆盖传统基础设施匮乏的偏远地区。作为星座扩容的一部分,该卫星将助力星链持续扩展全球网络覆盖,提升服务容量与稳定性。

基本信息
目录编号:
58985
目录名称:
STARLINK-31385
国际标识:
2024-031W
轨道中心:
EARTH
卫星名称:
星链-31385
卫星全名:
星链-31385 (STARLINK-31385 )
卫星状态:
在轨 (已飞行759 天)
发射日期:
2024-02-15 UTC
国别 :
美国 (US)
星等 :
--
轨道信息
数据来源 国际轨道数据 AOE轨道数据
星历时间 2026-03-15T13:53:57+0800
17小时前
查看轨道信息
2026-03-16T03:00:00+0800
4小时前
查看轨道信息
半长轴 6853.38km 6853.366km
偏心率 0.0001436 0.0001177
轨道倾角 53.160° 53.157°
近地点辐角 87.065° 86.845°
升交点赤经 268.726° 266.194°
平近点角 273.051° 41.958°
近地点 474.258km 474.422km
远地点 476.228km 476.036km
周期 94.106分钟 94.106分钟
每日圈数 15.301909 15.301955
详细信息
固有亮度:
5
最大亮度:
0.3
卫星平台:
Starlink v2.0 mini
覆盖范围:
全球
运营商:
太空探索技术公司
运营商所在国:
美国
制造商(研发单位):
太空探索技术公司
制造商所在国:
美国
使用方式:
暂无
卫星简介
星链(Starlink)计划是由太空探索技术公司(SpaceX)提出的一个巨型低轨卫星互联网星座项目,计划在2019年至2024年间在太空搭建由约1.2万颗卫星组成的“星链”网络,其中1584颗将部署在地球上空550千米处的近地轨道,并从2020年开始工作。该卫星仍在工作。
2D轨道图
3D轨道图
轨道高度分析图
轨道倾角分析图
轨道综合分析图
查看轨道综合分析图